SWA2473 KLAX-KAUS

Flight info

Callsign SWA2473
Flight time N/A
Altitude 35000
Route DOTSS2 CNERY BLH SPTFR SSO PEQ Q4 FUSCO DILLO LAIKS4
Aircraft B738/M-SDE2E3FGHIRWXY/LB1

Departure

Time 2026-04-21 05:11
Airport Los Angeles International Airport (KLAX)

Arrival

Time N/A
Airport Austin Bergstrom International Airport (KAUS)
Time Latitude Longitude Altitude Speed Heading
2026-04-21 04:49 33.94638 -118.40641 130 ft 0 kts 263°
2026-04-21 04:57 33.94639 -118.40635 130 ft 2 kts 264°
2026-04-21 04:57 33.94640 -118.40617 130 ft 2 kts 269°
2026-04-21 04:58 33.94638 -118.40600 130 ft 2 kts 289°
2026-04-21 04:58 33.94631 -118.40584 130 ft 2 kts 307°
2026-04-21 04:58 33.94621 -118.40570 129 ft 2 kts 323°
2026-04-21 04:58 33.94608 -118.40562 129 ft 2 kts 340°
2026-04-21 04:59 33.94598 -118.40558 129 ft 0 kts 351°
2026-04-21 04:59 33.94603 -118.40559 129 ft 3 kts 350°
2026-04-21 04:59 33.94648 -118.40566 129 ft 7 kts 353°
2026-04-21 04:59 33.94694 -118.40573 129 ft 5 kts 353°
2026-04-21 05:00 33.94711 -118.40576 129 ft 0 kts 354°
2026-04-21 05:01 33.94712 -118.40576 129 ft 0 kts 354°
2026-04-21 05:02 33.94744 -118.40580 129 ft 9 kts 354°
2026-04-21 05:02 33.94776 -118.40665 129 ft 16 kts 264°
2026-04-21 05:02 33.94760 -118.40823 130 ft 22 kts 263°
2026-04-21 05:02 33.94737 -118.41045 132 ft 30 kts 263°
2026-04-21 05:03 33.94693 -118.41291 130 ft 24 kts 264°
2026-04-21 05:03 33.94589 -118.41370 128 ft 22 kts 173°
2026-04-21 05:03 33.94407 -118.41344 126 ft 30 kts 173°
2026-04-21 05:03 33.94175 -118.41309 128 ft 35 kts 173°
2026-04-21 05:04 33.93942 -118.41274 129 ft 31 kts 172°
2026-04-21 05:04 33.93770 -118.41238 134 ft 18 kts 135°
2026-04-21 05:04 33.93767 -118.41097 134 ft 19 kts 83°
2026-04-21 05:04 33.93787 -118.40902 136 ft 27 kts 82°
2026-04-21 05:05 33.93813 -118.40640 135 ft 35 kts 83°
2026-04-21 05:05 33.93847 -118.40311 127 ft 42 kts 83°
2026-04-21 05:05 33.93883 -118.39961 122 ft 40 kts 84°
2026-04-21 05:05 33.93916 -118.39638 117 ft 38 kts 83°
2026-04-21 05:06 33.93948 -118.39322 112 ft 36 kts 83°
2026-04-21 05:06 33.93977 -118.39032 109 ft 33 kts 83°
2026-04-21 05:06 33.94005 -118.38760 108 ft 31 kts 83°
2026-04-21 05:06 33.94031 -118.38503 106 ft 29 kts 83°
2026-04-21 05:07 33.94056 -118.38268 104 ft 27 kts 83°
2026-04-21 05:07 33.94078 -118.38055 103 ft 20 kts 84°
2026-04-21 05:07 33.94077 -118.38023 103 ft 0 kts 110°
2026-04-21 05:08 33.94076 -118.38022 103 ft 0 kts 110°
2026-04-21 05:08 33.94074 -118.38017 103 ft 2 kts 120°
2026-04-21 05:08 33.94032 -118.37997 102 ft 10 kts 175°
2026-04-21 05:09 33.93984 -118.38030 103 ft 7 kts 262°
2026-04-21 05:09 33.93983 -118.38036 103 ft 0 kts 262°
2026-04-21 05:10 33.93982 -118.38038 103 ft 0 kts 262°
2026-04-21 05:10 33.93976 -118.38096 103 ft 25 kts 263°
2026-04-21 05:10 33.93918 -118.38655 107 ft 105 kts 263°
2026-04-21 05:11 33.93801 -118.39796 125 ft 167 kts 263°
2026-04-21 05:11 33.93648 -118.41258 721 ft 180 kts 264°
2026-04-21 05:11 33.93500 -118.42722 1532 ft 180 kts 263°
2026-04-21 05:11 33.93330 -118.44289 1922 ft 201 kts 262°
2026-04-21 05:12 33.93064 -118.46038 2220 ft 228 kts 252°
2026-04-21 05:12 33.92230 -118.47697 2879 ft 239 kts 225°
2026-04-21 05:12 33.90807 -118.48776 3502 ft 255 kts 202°
2026-04-21 05:12 33.89133 -118.49519 4349 ft 261 kts 198°
2026-04-21 05:13 33.87336 -118.49959 5030 ft 267 kts 188°
2026-04-21 05:13 33.85422 -118.50220 5434 ft 289 kts 187°
2026-04-21 05:13 33.83418 -118.50433 6414 ft 291 kts 185°
2026-04-21 05:13 33.81475 -118.50581 7608 ft 282 kts 184°
2026-04-21 05:14 33.79542 -118.50721 8670 ft 278 kts 186°
2026-04-21 05:14 33.77656 -118.50994 9583 ft 278 kts 188°
2026-04-21 05:14 33.75730 -118.51276 10415 ft 281 kts 187°
2026-04-21 05:14 33.73767 -118.51540 10889 ft 296 kts 187°
2026-04-21 05:15 33.71617 -118.51580 11073 ft 323 kts 172°
2026-04-21 05:15 33.69517 -118.50514 11497 ft 344 kts 145°
2026-04-21 05:15 33.67962 -118.48270 12200 ft 359 kts 120°
2026-04-21 05:15 33.67207 -118.45373 12971 ft 369 kts 106°
2026-04-21 05:16 33.66606 -118.42396 13706 ft 373 kts 109°
2026-04-21 05:16 33.65843 -118.39391 14453 ft 377 kts 110°
2026-04-21 05:16 33.65382 -118.36292 15150 ft 388 kts 97°
2026-04-21 05:16 33.65375 -118.33800 15715 ft 393 kts 92°
2026-04-21 05:17 33.65412 -118.30638 16376 ft 397 kts 94°
2026-04-21 05:17 33.65379 -118.27345 17026 ft 401 kts 95°
2026-04-21 05:17 33.65318 -118.23969 17675 ft 406 kts 95°
2026-04-21 05:17 33.65260 -118.20551 18329 ft 410 kts 95°
2026-04-21 05:18 33.65202 -118.17140 18985 ft 413 kts 95°
2026-04-21 05:18 33.65136 -118.13670 19632 ft 416 kts 96°
2026-04-21 05:18 33.65068 -118.10213 20268 ft 419 kts 96°
2026-04-21 05:18 33.64996 -118.06692 20884 ft 421 kts 96°
2026-04-21 05:19 33.64925 -118.03204 21476 ft 424 kts 96°
2026-04-21 05:19 33.64850 -117.99624 22068 ft 427 kts 96°
2026-04-21 05:19 33.64774 -117.96057 22644 ft 429 kts 96°
2026-04-21 05:19 33.64698 -117.92499 23190 ft 432 kts 96°
2026-04-21 05:20 33.64618 -117.88868 23733 ft 434 kts 96°
2026-04-21 05:20 33.64529 -117.85269 24249 ft 436 kts 97°
2026-04-21 05:20 33.64304 -117.81613 24709 ft 438 kts 100°
2026-04-21 05:20 33.63811 -117.77985 25148 ft 438 kts 107°
2026-04-21 05:21 33.63025 -117.74490 25574 ft 440 kts 110°
2026-04-21 05:21 33.62156 -117.70933 25977 ft 444 kts 110°
2026-04-21 05:21 33.61314 -117.67385 26354 ft 448 kts 109°
2026-04-21 05:21 33.60456 -117.63755 26746 ft 452 kts 109°
2026-04-21 05:22 33.59588 -117.60155 27127 ft 455 kts 109°
2026-04-21 05:22 33.58686 -117.56460 27454 ft 460 kts 110°
2026-04-21 05:22 33.57785 -117.52782 27869 ft 462 kts 109°
2026-04-21 05:22 33.56882 -117.49106 28233 ft 466 kts 109°
2026-04-21 05:23 33.55954 -117.45345 28583 ft 469 kts 109°
2026-04-21 05:23 33.55020 -117.41569 28918 ft 472 kts 109°
2026-04-21 05:23 33.54087 -117.37809 29244 ft 475 kts 109°
2026-04-21 05:23 33.53142 -117.34008 29792 ft 472 kts 110°
2026-04-21 05:24 33.52232 -117.30251 30248 ft 472 kts 108°
2026-04-21 05:24 33.51463 -117.26402 30653 ft 473 kts 105°
2026-04-21 05:24 33.50899 -117.22540 31056 ft 475 kts 100°
2026-04-21 05:24 33.50657 -117.18564 31449 ft 476 kts 95°
2026-04-21 05:25 33.50571 -117.14625 31822 ft 476 kts 94°
2026-04-21 05:25 33.50480 -117.10649 32182 ft 476 kts 95°
2026-04-21 05:25 33.50381 -117.06641 32512 ft 476 kts 95°
2026-04-21 05:25 33.50292 -117.02688 32831 ft 477 kts 95°
2026-04-21 05:26 33.50214 -116.98748 33153 ft 476 kts 95°
2026-04-21 05:26 33.50142 -116.94756 33444 ft 477 kts 94°
2026-04-21 05:26 33.50071 -116.90765 33721 ft 477 kts 94°
2026-04-21 05:26 33.50001 -116.86817 33983 ft 478 kts 94°
2026-04-21 05:27 33.49932 -116.82820 34276 ft 477 kts 94°
2026-04-21 05:27 33.49865 -116.78831 34559 ft 477 kts 94°
2026-04-21 05:27 33.49798 -116.74899 34820 ft 477 kts 94°
2026-04-21 05:27 33.49729 -116.70901 34968 ft 479 kts 94°
2026-04-21 05:28 33.49590 -116.62936 34960 ft 478 kts 94°
2026-04-21 05:28 33.49451 -116.55024 34960 ft 476 kts 94°
2026-04-21 05:29 33.49305 -116.47117 34960 ft 477 kts 94°
2026-04-21 05:29 33.49160 -116.39197 34960 ft 477 kts 94°
2026-04-21 05:30 33.49049 -116.31250 34960 ft 477 kts 94°
2026-04-21 05:30 33.48931 -116.23320 34960 ft 477 kts 94°
2026-04-21 05:31 33.48805 -116.15401 34960 ft 477 kts 94°
2026-04-21 05:31 33.48727 -116.07455 34953 ft 480 kts 91°
2026-04-21 05:32 33.49770 -115.99570 34949 ft 485 kts 75°
2026-04-21 05:32 33.52036 -115.91932 34949 ft 485 kts 72°
2026-04-21 05:33 33.54237 -115.84297 34955 ft 485 kts 72°
2026-04-21 05:33 33.56441 -115.76667 34961 ft 485 kts 72°
2026-04-21 05:34 33.58652 -115.69043 34967 ft 485 kts 72°
2026-04-21 05:34 33.60738 -115.61347 34972 ft 484 kts 78°
2026-04-21 05:35 33.61611 -115.53419 34973 ft 478 kts 92°
2026-04-21 05:35 33.61392 -115.45473 34972 ft 478 kts 94°
2026-04-21 05:36 33.61238 -115.37505 34972 ft 478 kts 94°
2026-04-21 05:36 33.61059 -115.29565 34972 ft 476 kts 95°
2026-04-21 05:37 33.60861 -115.21639 34972 ft 476 kts 94°
2026-04-21 05:37 33.60657 -115.13661 34964 ft 476 kts 94°
2026-04-21 05:38 33.60446 -115.05740 34952 ft 476 kts 94°
2026-04-21 05:38 33.60229 -114.97805 34940 ft 476 kts 94°
2026-04-21 05:39 33.60006 -114.89904 34935 ft 475 kts 94°
2026-04-21 05:39 33.59780 -114.82031 34936 ft 475 kts 94°
2026-04-21 05:40 33.59105 -114.74181 34936 ft 472 kts 104°
2026-04-21 05:40 33.57679 -114.66513 34937 ft 471 kts 104°
2026-04-21 05:41 33.56286 -114.58798 34937 ft 471 kts 104°
2026-04-21 05:41 33.54860 -114.51132 34938 ft 471 kts 104°
2026-04-21 05:42 33.53422 -114.43491 34939 ft 471 kts 104°
2026-04-21 05:42 33.51964 -114.35801 34940 ft 470 kts 104°
2026-04-21 05:43 33.50505 -114.28155 34941 ft 470 kts 105°
2026-04-21 05:43 33.49048 -114.20555 34945 ft 470 kts 105°
2026-04-21 05:44 33.47574 -114.12905 34957 ft 470 kts 105°
2026-04-21 05:44 33.46103 -114.05296 34967 ft 470 kts 105°
2026-04-21 05:45 33.44626 -113.97681 34974 ft 471 kts 105°
2026-04-21 05:45 33.43141 -113.90063 34972 ft 471 kts 105°
2026-04-21 05:46 33.41650 -113.82431 34972 ft 471 kts 105°
2026-04-21 05:46 33.40151 -113.74794 34972 ft 472 kts 105°
2026-04-21 05:47 33.38543 -113.67196 34972 ft 471 kts 108°
2026-04-21 05:47 33.36734 -113.59650 34972 ft 470 kts 108°
2026-04-21 05:48 33.34972 -113.52125 34972 ft 471 kts 108°
2026-04-21 05:48 33.33192 -113.44547 34972 ft 471 kts 108°
2026-04-21 05:49 33.31416 -113.37000 34972 ft 472 kts 108°
2026-04-21 05:49 33.29639 -113.29462 34972 ft 472 kts 108°
2026-04-21 05:50 33.27851 -113.21899 34972 ft 471 kts 108°
2026-04-21 05:50 33.26069 -113.14381 34972 ft 472 kts 108°
2026-04-21 05:51 33.24278 -113.06840 34972 ft 472 kts 108°
2026-04-21 05:51 33.22474 -112.99271 34972 ft 472 kts 108°
2026-04-21 05:52 33.20678 -112.91760 34972 ft 472 kts 108°
2026-04-21 05:52 33.18865 -112.84197 34972 ft 473 kts 108°
2026-04-21 05:53 33.17052 -112.76655 34972 ft 473 kts 108°
2026-04-21 05:53 33.15239 -112.69137 34972 ft 473 kts 108°
2026-04-21 05:54 33.13419 -112.61608 34972 ft 473 kts 108°
2026-04-21 05:54 33.11588 -112.54060 34972 ft 473 kts 108°
2026-04-21 05:55 33.09763 -112.46558 34974 ft 473 kts 108°
2026-04-21 05:55 33.07916 -112.38982 34977 ft 473 kts 108°
2026-04-21 05:56 33.06085 -112.31499 34978 ft 473 kts 109°
2026-04-21 05:56 33.04243 -112.23995 34981 ft 473 kts 109°
2026-04-21 05:57 33.02396 -112.16489 34983 ft 474 kts 109°
2026-04-21 05:57 33.00538 -112.08958 34985 ft 474 kts 109°
2026-04-21 05:58 32.98682 -112.01457 34994 ft 474 kts 109°
2026-04-21 05:58 32.96811 -111.93929 35013 ft 477 kts 109°
2026-04-21 05:59 32.94927 -111.86356 35030 ft 479 kts 109°
2026-04-21 06:00 32.92081 -111.74956 35036 ft 478 kts 109°
2026-04-21 06:00 32.90187 -111.67398 35036 ft 478 kts 109°
2026-04-21 06:01 32.88276 -111.59795 35036 ft 478 kts 109°
2026-04-21 06:01 32.86367 -111.52224 35036 ft 478 kts 108°
2026-04-21 06:02 32.84448 -111.44633 35036 ft 479 kts 108°
2026-04-21 06:02 32.82520 -111.37030 35036 ft 479 kts 108°
2026-04-21 06:03 32.80590 -111.29440 35036 ft 481 kts 109°
2026-04-21 06:03 32.78652 -111.21837 35036 ft 481 kts 109°
2026-04-21 06:04 32.76705 -111.14221 35036 ft 482 kts 109°
2026-04-21 06:04 32.74761 -111.06637 35057 ft 482 kts 109°
2026-04-21 06:05 32.72791 -110.98977 35095 ft 483 kts 108°
2026-04-21 06:05 32.70829 -110.91369 35133 ft 483 kts 108°
2026-04-21 06:06 32.68855 -110.83729 35155 ft 484 kts 108°
2026-04-21 06:06 32.66883 -110.76125 35155 ft 485 kts 108°
2026-04-21 06:07 32.64901 -110.68501 35155 ft 485 kts 108°
2026-04-21 06:07 32.62908 -110.60855 35155 ft 486 kts 108°
2026-04-21 06:08 32.60887 -110.53125 35155 ft 487 kts 108°
2026-04-21 06:08 32.58881 -110.45472 35155 ft 488 kts 108°
2026-04-21 06:09 32.56860 -110.37785 35155 ft 489 kts 108°
2026-04-21 06:09 32.54826 -110.30067 35155 ft 489 kts 109°
2026-04-21 06:10 32.52793 -110.22375 35155 ft 490 kts 109°
2026-04-21 06:10 32.50753 -110.14677 35154 ft 492 kts 109°
2026-04-21 06:11 32.48704 -110.06967 35122 ft 492 kts 109°
2026-04-21 06:11 32.46640 -109.99226 35093 ft 492 kts 108°
2026-04-21 06:12 32.44581 -109.91521 35076 ft 494 kts 108°
2026-04-21 06:12 32.42498 -109.83759 35087 ft 494 kts 107°
2026-04-21 06:13 32.40420 -109.76024 35100 ft 495 kts 107°
2026-04-21 06:13 32.38336 -109.68284 35113 ft 494 kts 107°
2026-04-21 06:14 32.36231 -109.60493 35127 ft 494 kts 108°
2026-04-21 06:14 32.34144 -109.52788 35140 ft 494 kts 108°
2026-04-21 06:15 32.32051 -109.45084 35153 ft 494 kts 108°
2026-04-21 06:15 32.29955 -109.37389 35155 ft 494 kts 108°
2026-04-21 06:16 32.27859 -109.29656 35155 ft 493 kts 107°
2026-04-21 06:16 32.26515 -109.21752 35156 ft 492 kts 97°
2026-04-21 06:17 32.25525 -109.13709 35153 ft 493 kts 98°
2026-04-21 06:17 32.24529 -109.05681 35150 ft 494 kts 97°
2026-04-21 06:18 32.23556 -108.97661 35147 ft 494 kts 97°
2026-04-21 06:18 32.22587 -108.89656 35146 ft 494 kts 97°
2026-04-21 06:19 32.21615 -108.81639 35146 ft 495 kts 97°
2026-04-21 06:19 32.20639 -108.73601 35146 ft 495 kts 97°
2026-04-21 06:20 32.19655 -108.65534 35146 ft 496 kts 98°
2026-04-21 06:20 32.18828 -108.58787 35146 ft 497 kts 98°
2026-04-21 06:21 32.17665 -108.49342 35146 ft 499 kts 98°
2026-04-21 06:21 32.16662 -108.41245 35146 ft 500 kts 98°